METEOR 2-17 DEB

Satellite information

Favourite Embed

Satellite Type and Status

DEBRISIN ORBIT

Key statistics

Satellite METEOR 2-17 DEB at a glance.

Uptime

13727

Days in orbit

Revolutions

≈ 14.1

Per day

Orbit

LEO

Low Earth Orbit

Inclination

82.5

Latest

Satellite identification and parameters

Extended collection of information and parameters for METEOR 2-17 DEB.

Object identification

Identified? True

Debris? True

Object name: METEOR 2-17 DEB

International designator: 1988-005F

Object number (NORAD): 28991

Object ID (CCSDS): 28991

Country: COMMONWEALTH OF INDEPENDENT STATES (CIS)

Current information (Y/N): Y

RCS size: SMALL

Orbital parameters

Period: 102.275 minutes

Inclination: 82.5225 deg

SMA: 7244.457 km

Apoapsis: 887.944 km

Periapsis: 844.7 km

RAAN: 104.265 deg

Eccentricy: 0.00298461

Argument of periapsis: 28.5839 deg

Mean anomaly: 149.2183 deg

Mean motion: 14.07971943 rev/day

Mean motion (dot): 0.00002028 rev/day2

B* drag term: 0.001180451 1/REarth

Two-line elements (TLE)

Creation date: Aug. 30, 2025, 3:38 a.m.

Reference frame: TEME

Reference center: EARTH

Epoch: Aug. 29, 2025, 8:42 a.m. UTC

TLE line 0: 0 METEOR 2-17 DEB

TLE line 1: 1 28991U 88005F 25241.36293654 .00002028 00000-0 11805-2 0 9991

TLE line 2: 2 28991 82.5225 104.2650 0029846 28.5839 149.2183 14.07971943 24859

Live tracking on map

Real-time ground track for satellite METEOR 2-17 DEB.

In-orbit conjunctions

A list of the most updated potential collisions computed for object METEOR 2-17 DEB.

Target Orbit TCA Probability of collision Miss distance Type
COSMOS 2227 LEO 2025-08-20 09:13:16 0.0001586195 210.0 (m) PAYLOAD
CZ-4B R/B SSO 2025-07-24 21:50:23 0.0002966107 60.0 (m) ROCKET BODY
IRIDIUM 33 DEB LEO 2024-09-27 10:48:34 0.0001801157 760.0 (m) DEBRIS

Associated space launch

Second generation soviet meteorological satellite

METEOR 2-17 DEB was lifted into orbit during the mission ‘Tsiklon-3 | Meteor-2 17’, on board a Tsiklon-3 space rocket.

The launch took place on Jan. 30, 1988, 10:59 a.m. from 32/1.

For more information about the launch, click the button.

Launch to space Tsiklon-3 | Meteor-2 17
Tsiklon-3 | Meteor-2 17

Agency: N/A

Status: Launch Successful

Launch date: Jan. 30, 1988, 10:59 a.m. UTC

Rocket: Tsiklon-3

Launch pad: 32/1

Location: Plesetsk Cosmodrome, Russian Federation

...

Latest news about this satellite

There are no fresh news available about this satellite. Check back as we update our databases every day.


Newsletter sign-up

Weekly statistics, charts and insights to help you stay on top of the space industry.